TimePST,TemperatureF,Dew PointF,Humidity,Sea Level PressureIn,VisibilityMPH,Wind Direction,Wind SpeedMPH,Gust SpeedMPH,PrecipitationIn,Events,Conditions,WindDirDegrees,DateUTC
12:07 AM,46.4,44.6,93,30.42,2.5,Calm,Calm,-,N/A,,Clear,0,2013-03-01 08:07:00
12:14 AM,44.6,44.6,100,30.42,1.5,Calm,Calm,-,N/A,,Clear,0,2013-03-01 08:14:00
12:18 AM,44.6,42.8,93,30.42,0.8,West,3.5,-,N/A,,Mist,280,2013-03-01 08:18:00
12:26 AM,44.6,42.8,93,30.42,1.2,Calm,Calm,-,N/A,,Partly Cloudy,0,2013-03-01 08:26:00
12:29 AM,44.6,42.8,93,30.42,4.0,Calm,Calm,-,N/A,,Partly Cloudy,0,2013-03-01 08:29:00
12:58 AM,44.6,41.0,87,30.42,1.8,West,3.5,-,N/A,,Clear,280,2013-03-01 08:58:00
1:18 AM,44.6,42.8,93,30.42,3.0,Calm,Calm,-,N/A,,Clear,0,2013-03-01 09:18:00
1:28 AM,42.8,41.0,93,30.42,1.5,Calm,Calm,-,N/A,,Clear,0,2013-03-01 09:28:00
1:53 AM,42.1,41.0,96,30.41,1.0,SSE,3.5,-,N/A,,Mist,150,2013-03-01 09:53:00
2:06 AM,42.8,41.0,93,30.43,2.0,Calm,Calm,-,N/A,,Partly Cloudy,0,2013-03-01 10:06:00
2:14 AM,44.6,42.8,93,30.42,1.2,SE,3.5,-,N/A,,Partly Cloudy,140,2013-03-01 10:14:00
2:20 AM,42.8,41.0,93,30.43,0.8,South,3.5,-,N/A,,Mist,170,2013-03-01 10:20:00
2:38 AM,42.8,42.8,100,30.43,1.0,Calm,Calm,-,N/A,,Mist,0,2013-03-01 10:38:00
2:45 AM,42.8,42.8,100,30.42,0.2,Calm,Calm,-,N/A,Fog,Fog,0,2013-03-01 10:45:00
2:53 AM,42.1,41.0,96,30.41,0.5,SSW,3.5,-,N/A,Fog,Fog,200,2013-03-01 10:53:00
3:29 AM,42.8,39.2,87,30.42,1.5,Calm,Calm,-,N/A,,Mostly Cloudy,0,2013-03-01 11:29:00
3:43 AM,41.0,39.2,93,30.42,0.5,Calm,Calm,-,N/A,Fog,Fog,0,2013-03-01 11:43:00
4:25 AM,39.2,39.2,100,30.42,0.2,Calm,Calm,-,N/A,Fog,Fog,0,2013-03-01 12:25:00
4:32 AM,41.0,39.2,93,30.42,0.5,Calm,Calm,-,N/A,Fog,Fog,0,2013-03-01 12:32:00
4:53 AM,37.9,36.0,93,30.40,0.5,West,3.5,-,N/A,Fog,Fog,270,2013-03-01 12:53:00
5:35 AM,37.4,37.4,100,30.41,1.0,Calm,Calm,-,N/A,,Mist,0,2013-03-01 13:35:00
5:43 AM,39.2,37.4,93,30.41,0.5,Calm,Calm,-,N/A,Fog,Fog,0,2013-03-01 13:43:00
6:01 AM,37.4,35.6,93,30.41,1.0,Calm,Calm,-,N/A,,Mist,0,2013-03-01 14:01:00
6:11 AM,37.4,37.4,100,30.40,0.5,Calm,Calm,-,N/A,Fog,Fog,0,2013-03-01 14:11:00
6:24 AM,37.4,35.6,93,30.40,1.2,Calm,Calm,-,N/A,,Scattered Clouds,0,2013-03-01 14:24:00
6:40 AM,37.4,35.6,93,30.39,10.0,Calm,Calm,-,N/A,Fog,Patches of Fog,0,2013-03-01 14:40:00
6:53 AM,37.9,37.0,97,30.38,10.0,West,3.5,-,N/A,Fog,Shallow Fog,280,2013-03-01 14:53:00
7:53 AM,42.1,41.0,96,30.37,10.0,Calm,Calm,-,N/A,Fog,Patches of Fog,0,2013-03-01 15:53:00
8:53 AM,51.1,48.0,89,30.38,10.0,NNW,3.5,-,0.01,,Clear,330,2013-03-01 16:53:00
9:53 AM,60.1,48.9,67,30.37,10.0,ENE,3.5,-,N/A,,Clear,60,2013-03-01 17:53:00
10:53 AM,63.0,48.9,60,30.36,10.0,Calm,Calm,-,N/A,,Clear,0,2013-03-01 18:53:00
11:53 AM,66.0,48.9,54,30.34,10.0,Variable,3.5,-,N/A,,Scattered Clouds,0,2013-03-01 19:53:00
12:53 PM,69.1,46.0,44,30.30,10.0,SW,3.5,-,N/A,,Scattered Clouds,230,2013-03-01 20:53:00
1:53 PM,72.0,46.0,40,30.26,10.0,Calm,Calm,-,N/A,,Scattered Clouds,0,2013-03-01 21:53:00
2:53 PM,73.0,44.1,35,30.24,10.0,Calm,Calm,-,N/A,,Scattered Clouds,0,2013-03-01 22:53:00
3:53 PM,72.0,48.0,43,30.23,10.0,South,9.2,-,N/A,,Clear,170,2013-03-01 23:53:00
4:53 PM,70.0,46.9,44,30.22,10.0,South,6.9,-,N/A,,Scattered Clouds,180,2013-03-02 00:53:00
5:53 PM,64.0,46.0,52,30.22,10.0,SE,5.8,-,N/A,,Scattered Clouds,130,2013-03-02 01:53:00
6:53 PM,59.0,46.9,64,30.23,10.0,SSE,4.6,-,N/A,,Scattered Clouds,160,2013-03-02 02:53:00
7:53 PM,54.0,46.0,75,30.24,10.0,SSE,4.6,-,N/A,,Clear,160,2013-03-02 03:53:00
8:53 PM,51.1,44.1,77,30.25,10.0,South,3.5,-,N/A,,Clear,170,2013-03-02 04:53:00
9:53 PM,48.9,44.1,83,30.25,10.0,Calm,Calm,-,N/A,,Clear,0,2013-03-02 05:53:00
10:53 PM,46.0,43.0,89,30.24,10.0,NW,3.5,-,N/A,,Clear,320,2013-03-02 06:53:00
11:53 PM,45.0,43.0,93,30.24,10.0,NNW,6.9,-,N/A,,Clear,330,2013-03-02 07:53:00